軌道要素
Epoch 2014 May 23.0 TT = JDT 2456800.5
T 2014 June 7.55947 TT                                  MPCW
q   1.4663383            (2000.0)            P               Q
n   0.16049971     Peri.  219.64981     +0.94514187     -0.32560469
a   3.3534091      Node   159.30690     +0.31538214     +0.88863885
e   0.5627321      Incl.    4.25825     +0.08509378     +0.32295909
P   6.14
From 368 observations 2001 July 12-2014 Dec. 31, mean residual 0".8.
     Nongravitational parameters A1 = +1.05, A2 = -0.2274.
  |